Weather History for LFLB - January, 2014

Change the Weather History Date:

Monday, January 20, 2014

  Actual Average Record
Temperature  
Mean Temperature 40 °F -  
Max Temperature 42 °F 43 °F 51 °F (2007)
Min Temperature 39 °F 30 °F 24 °F (2000)
Degree Days  
Heating Degree Days 24    
Moisture  
Dew Point 39 °F    
Average Humidity 92    
Maximum Humidity 100    
Minimum Humidity 79    
Precipitation  
Precipitation 0.12 in - - ()
Sea Level Pressure  
Sea Level Pressure 29.68 in    
Wind  
Wind Speed 1 mph ()    
Max Wind Speed 5 mph    
Max Gust Speed -    
Visibility 3.3 miles    
Events Rain    
Averages and records for this station are not official NWS values.
T = Trace of Precipitation, MM = Missing Value Source: Averaged Metar Reports

Daily Weather History Graph

Daily Weather History Graph

Search for Another Location

Airport or City:

Trip Planner

Search our weather history database for the weather conditions in past years. The results will help you decide how hot, cold, wet, or windy it might be!

Date:

Astronomy

Jan. 20, 2014 Rise Set
Actual Time 8:09 AM CET 5:25 PM CET
Civil Twilight 7:37 AM CET 5:58 PM CET
Nautical Twilight 7:00 AM CET 6:34 PM CET
Astronomical Twilight 6:25 AM CET 7:10 PM CET
Moon 10:00 PM CET (1/20) 9:47 AM CET (1/20)
Length of Visible Light 10h 21m
Length of Day
9h 15m
Waning Gibbous, 84% of the Moon is Illuminated
Jan 20
Waning Gibbous
Jan 24
Last Quarter
Jan 30
New
Feb 6
First Quarter
Feb 15
Full

Hourly Weather History & Observations

Time (CET) Temp. Windchill Dew Point Humidity Pressure Visibility Wind Dir Wind Speed Gust Speed Precip Events Conditions
12:00 AM 40 °F - 39 °F 95% 29.55 in 2 mi Calm Calm - -   Mist
12:00 AM 41.0 °F - 39.2 °F 93% 29.50 in - Calm Calm - N/A   Mostly Cloudy
12:30 AM 41.0 °F - 39.2 °F 93% 29.50 in 1.3 mi Calm Calm - N/A Rain Light Rain
1:00 AM 40 °F - 39 °F 95% 29.55 in 2 mi Calm Calm - - Rain Light Rain
1:00 AM 41.0 °F - 39.2 °F 93% 29.50 in 2.2 mi Calm Calm - N/A Rain Light Rain
1:30 AM 39.2 °F - 39.2 °F 100% 29.53 in 0.9 mi Calm Calm - N/A   Overcast
2:00 AM 40 °F - 39 °F 94% 29.55 in 1 mi Calm Calm - -   Mist
2:00 AM 41.0 °F - 39.2 °F 93% 29.53 in 1.1 mi Calm Calm - N/A   Overcast
2:30 AM 41.0 °F - 39.2 °F 93% 29.53 in 1.2 mi Calm Calm - N/A   Overcast
3:00 AM 40 °F - 39 °F 96% 29.57 in 1 mi Calm Calm - -   Mist
3:00 AM 41.0 °F - 39.2 °F 93% 29.53 in 0.8 mi Calm Calm - N/A   Overcast
3:30 AM 41.0 °F - 39.2 °F 93% 29.53 in - Calm Calm - N/A   Overcast
4:00 AM 40 °F - 39 °F 97% 29.58 in 1 mi Calm Calm - -   Mist
4:00 AM 41.0 °F - 39.2 °F 93% 29.53 in 1.2 mi Calm Calm - N/A   Overcast
4:30 AM 41.0 °F - 39.2 °F 93% 29.53 in 1.1 mi Calm Calm - N/A   Mostly Cloudy
5:00 AM 41 °F - 40 °F 94% 29.58 in 1 mi Calm Calm - -   Mist
5:00 AM 41.0 °F - 39.2 °F 93% 29.56 in 0.9 mi Calm Calm - N/A   Overcast
5:30 AM 41.0 °F - 39.2 °F 93% 29.56 in 0.6 mi Calm Calm - N/A   Overcast
6:00 AM 41 °F - 40 °F 94% 29.59 in 2 mi Calm Calm - -   Mist
6:00 AM 41.0 °F - 39.2 °F 93% 29.56 in 2.5 mi Calm Calm - N/A   Mostly Cloudy
6:30 AM 41.0 °F - 39.2 °F 93% 29.56 in 1.6 mi North 1.2 mph - N/A   Mostly Cloudy
7:00 AM 41 °F - 40 °F 93% 29.61 in 2 mi North 2.3 mph - - Rain Light Drizzle
7:00 AM 41.0 °F - 39.2 °F 93% 29.56 in 1.6 mi North 1.2 mph - N/A   Mostly Cloudy
7:30 AM 41.0 °F - 39.2 °F 93% 29.59 in 1.2 mi Calm Calm - N/A Rain Light Rain
8:00 AM 41 °F - 40 °F 95% 29.64 in 1 mi East 2.3 mph - - Rain Rain
8:00 AM 41.0 °F - 41.0 °F 100% 29.59 in 0.9 mi East 2.3 mph - N/A Rain Rain
8:30 AM 41.0 °F - 41.0 °F 100% 29.62 in 0.9 mi WSW 1.2 mph - N/A Rain Light Rain
9:00 AM 41 °F - 40 °F 97% 29.67 in 1 mi Calm Calm - - Rain Light Rain
9:00 AM 41.0 °F - 41.0 °F 100% 29.62 in 1.2 mi Calm Calm - N/A Rain Light Rain
9:30 AM 41.0 °F 39.0 °F 39.2 °F 93% 29.65 in 2.5 mi SE 3.5 mph - N/A Rain Light Rain
10:00 AM 41 °F - 40 °F 92% 29.69 in 4 mi South 2.3 mph - - Rain Light Rain
10:00 AM 41.0 °F - 39.2 °F 93% 29.65 in 3.7 mi SSE 2.3 mph - N/A Rain Light Rain
10:30 AM 41.0 °F - 39.2 °F 93% 29.68 in 3.7 mi North 2.3 mph - N/A Rain Light Rain
11:00 AM 41 °F - 39 °F 91% 29.72 in 4 mi Calm Calm - - Rain Light Rain
11:00 AM 41.0 °F - 39.2 °F 93% 29.68 in 3.7 mi Calm Calm - N/A   Mostly Cloudy
11:30 AM 41.0 °F - 39.2 °F 93% 29.68 in 5.0 mi Variable 1.2 mph - N/A   Mostly Cloudy
12:00 PM 42 °F - 39 °F 86% 29.73 in 5 mi NNW 3.5 mph - -   Overcast
12:00 PM 41.0 °F 39.0 °F 39.2 °F 93% 29.68 in 5.0 mi NNW 3.5 mph - N/A   Mostly Cloudy
12:30 PM 42.8 °F 40.1 °F 39.2 °F 87% 29.68 in 5.0 mi NNW 4.6 mph - N/A Rain Light Rain
1:00 PM 42 °F - 39 °F 86% 29.73 in 5 mi NNW 4.6 mph - - Rain Light Rain
1:00 PM 42.8 °F 41.1 °F 39.2 °F 87% 29.68 in 5.0 mi NNW 3.5 mph - N/A Rain Light Rain
1:30 PM 42.8 °F 40.1 °F 39.2 °F 87% 29.71 in 6.2 mi North 4.6 mph - N/A   Mostly Cloudy
2:00 PM 43 °F - 39 °F 79% 29.73 in 6 mi NNW 3.5 mph - - Rain Light Rain
2:00 PM 42.8 °F 41.1 °F 39.2 °F 87% 29.71 in 6.2 mi NNW 3.5 mph - N/A Rain Light Rain
2:30 PM 42.8 °F 41.1 °F 37.4 °F 81% 29.71 in 6.2 mi Variable 3.5 mph - N/A   Mostly Cloudy
3:00 PM 42 °F - 38 °F 79% 29.75 in 6 mi North 2.3 mph - - Rain Light Rain
3:00 PM 42.8 °F - 37.4 °F 81% 29.71 in 6.2 mi North 2.3 mph - N/A   Mostly Cloudy
3:30 PM 42.8 °F - 37.4 °F 81% 29.71 in 6.2 mi Calm Calm - N/A Rain Light Rain
4:00 PM 42 °F - 39 °F 83% 29.77 in 6 mi SE 2.3 mph - - Rain Light Rain
4:00 PM 42.8 °F - 39.2 °F 87% 29.74 in 6.2 mi ESE 2.3 mph - N/A Rain Light Rain
4:30 PM 42.8 °F - 39.2 °F 87% 29.74 in 6.2 mi ESE 2.3 mph - N/A Rain Light Rain
5:00 PM 41 °F - 39 °F 88% 29.79 in 5 mi SSE 2.3 mph - - Rain Light Rain
5:00 PM 41.0 °F - 39.2 °F 93% 29.74 in 5.0 mi SSE 2.3 mph - N/A Rain Light Rain
5:30 PM 41.0 °F - 39.2 °F 93% 29.77 in 5.0 mi Calm Calm - N/A Rain Light Rain
6:00 PM 41 °F - 39 °F 90% 29.81 in 5 mi East 1.2 mph - - Rain Light Rain
6:00 PM 41.0 °F - 39.2 °F 93% 29.77 in 5.0 mi East 1.2 mph - N/A Rain Light Rain
6:30 PM 41.0 °F - 39.2 °F 93% 29.77 in 5.0 mi Calm Calm - N/A Rain Light Rain
7:00 PM 40 °F - 39 °F 94% 29.83 in 7 mi Calm Calm - - Rain Light Rain
7:00 PM 41.0 °F - 39.2 °F 93% 29.80 in 6.2 mi Calm Calm - N/A Rain Light Rain
7:30 PM 41.0 °F - 39.2 °F 93% 29.80 in 3.1 mi Calm Calm - N/A Rain Light Rain
8:00 PM 40 °F - 39 °F 93% 29.84 in 3 mi East 1.2 mph - - Rain Light Rain
8:00 PM 39.2 °F - 39.2 °F 100% 29.80 in 3.1 mi East 1.2 mph - N/A Rain Light Rain
8:30 PM 41.0 °F - 39.2 °F 93% 29.80 in 5.0 mi West 1.2 mph - N/A Rain Light Rain
9:00 PM 40 °F - 39 °F 93% 29.85 in 4 mi Calm Calm - - Rain Light Rain
9:00 PM 39.2 °F - 39.2 °F 100% 29.83 in - Calm Calm - N/A Rain Light Rain
9:30 PM 39.2 °F - 39.2 °F 100% 29.83 in - Calm Calm - N/A   Light Drizzle
10:00 PM 40 °F - 39 °F 93% 29.87 in 2 mi Calm Calm - - Rain Light Rain
10:00 PM 39.2 °F - 39.2 °F 100% 29.83 in - Calm Calm - N/A Rain Light Rain
10:30 PM 39.2 °F - 39.2 °F 100% 29.83 in 3.1 mi Calm Calm - N/A Rain Light Rain
11:00 PM 40 °F - 38 °F 91% 29.88 in 3 mi Calm Calm - - Rain Light Rain
11:00 PM 39.2 °F - 39.2 °F 100% 29.83 in 3.1 mi Calm Calm - N/A Rain Light Rain
11:30 PM 39.2 °F - 37.4 °F 93% 29.83 in 3.1 mi Calm Calm - N/A   Drizzle